星链-3870 (STARLINK-3870 )

导读

STARLINK-3870是美国太空探索技术公司(SpaceX)于2022年5月6日发射的星链(Starlink)系列卫星,隶属于Starlink V1.0平台,运行于近地轨道,轨道倾角约43°,轨道高度约483公里。作为星链全球卫星互联网项目的一员,它为全球偏远地区及特殊场景提供高速低延迟互联网接入,助力缩小数字鸿沟,同时也可为军事、航空等领域提供通信服务支撑。

基本信息
目录编号:
52451
目录名称:
STARLINK-3870
国际标识:
2022-049A
轨道中心:
EARTH
卫星名称:
星链-3870
卫星全名:
星链-3870 (STARLINK-3870 )
卫星状态:
已陨落 最后检测时间 2026-05-26
发射日期:
2022-05-06 UTC
国别 :
美国 (US)
星等 :
--
该卫星已列入 空间交会检测服务 Space Conjunction Data Service (SCDS) ,当前飞行风险评估等级: 无高风险
轨道信息
数据来源 国际轨道数据
星历时间: 2026-05-26T08:37:47+0800
轨道信息已过期109天
半长轴: 6528.053km
偏心率: 0.0010518
轨道倾角: 53.201°
近地点辐角 244.905°
升交点赤经 51.916°
平近点角 115.091°
近地点: 143.049km
远地点: 156.783km
周期: 87.485分钟
每日圈数: 16.459906
详细信息
固有亮度:
5
最大亮度:
2.5
卫星平台:
Starlink v1.5
覆盖范围:
全球
运营商:
太空探索技术公司
运营商所在国:
美国
制造商(研发单位):
太空探索技术公司
制造商所在国:
美国
使用方式:
暂无
卫星简介
星链(Starlink)计划是由太空探索技术公司(SpaceX)提出的一个巨型低轨卫星互联网星座项目,计划在2019年至2024年间在太空搭建由约1.2万颗卫星组成的“星链”网络,其中1584颗将部署在地球上空550千米处的近地轨道,并从2020年开始工作。该卫星仍在工作。
与全量物体交会距离演化趋势
与全量物体交会风险概率演化趋势